sat.trackr.live / text

‹ back to catalog

STARLINK-2141

NORAD 47731 · 2021-017K

PAYLOAD ACTIVE UNKNOWN

§ Identity

Operator
Country
US
Launch date
2021-03-04
Launch site
AFETR
Launch vehicle
Mass (kg)
RCS (m²)

Purposes: comms

External: N2YO · Heavens-Above · Gunter

§ Orbital elements

Epoch: 2026-07-23T12:54:16.130016Z

Period
87.76 min
Inclination
53.1321°
Eccentricity
0.0004959
Mean motion
16.40765384 rev/d
Perigee alt
160.5 km
Apogee alt
167.0 km
Semi-major
6,541.9 km
B*
5.3142e-4
RAAN
253.0634°
Arg perigee
310.3134°
Mean anomaly
49.7480°
Rev number
29,920

§ Raw data

STARLINK-21411 47731U 21017K   26204.53768669  .08035852  12429-4  53142-3 0  99982 47731  53.1321 253.0634 0004959 310.3134  49.7480 16.40765384299202

JSON: /api/v1/satellites/47731 · /tle

For live sub-satellite position, see the globe view (requires WebGL).

§ Visibility from observer

Set your observer location to see the next 7 days of passes ≥ 10°. The values pass through the URL so the page stays shareable.

No JS? Fill the form by hand. The geolocation button needs JavaScript.